Latest Coastal Weather Observations for Melbourne

IDV60701

Issued at 2:35 am EST Tuesday 29 July 2014 (issued every 10 minutes, with the page automatically refreshed every 10 minutes)

About coastal observations | Map of coastal stations | Coastal observations for VIC | Marine services | Other Formats
Station Details ID: 086071 Name: MELBOURNE REGIONAL OFFICE Lat: -37.81 Lon: 144.97 Height: 31.15 m
Data from the previous 72 hours. | See also: Recent months at Melbourne
Date/Time
EST
Temp

°C
Wind Pressure Rain
since 9am
mm
Weather Cloud Vis
km
Sea
Height
m
Swell
Dir
 
Speed
knots
Gust
knots
hPa Trend Height
m
Period
s
Dir
29/02:30am 11.6 - - - 1010.5 - 0.0 - - - - - - -
29/02:00am 11.8 - - - 1011.3 - 0.0 - - - - - - -
29/01:30am 11.7 - - - 1011.6 - 0.0 - - - - - - -
29/01:00am 11.5 - - - 1011.8 - 0.0 - - - - - - -
29/12:30am 11.6 - - - 1012.3 - 0.0 - - - - - - -
29/12:00am 11.9 - - - 1012.8 - 0.0 - - - - - - -
 
Date/Time
EST
Temp

°C
Wind Pressure Rain
since 9am
mm
Weather Cloud Vis
km
Sea
Height
m
Swell
Dir
 
Speed
knots
Gust
knots
hPa Trend Height
m
Period
s
Dir
28/11:30pm 12.2 - - - 1012.9 - 0.0 - - - - - - -
28/11:00pm 12.5 - - - 1013.0 - 0.0 - - - - - - -
28/10:30pm 12.6 - - - 1013.2 - 0.0 - - - - - - -
28/10:00pm 12.7 - - - 1013.0 - 0.0 - - - - - - -
28/09:30pm 13.0 - - - 1013.0 - 0.0 - - - - - - -
28/09:00pm 13.1 - - - 1013.0 - 0.0 - - - - - - -
28/08:30pm 13.3 - - - 1012.9 - 0.0 - - - - - - -
28/08:00pm 13.4 - - - 1013.2 - 0.0 - - - - - - -
28/07:30pm 13.9 - - - 1013.0 - 0.0 - - - - - - -
28/07:00pm 13.8 - - - 1012.7 - 0.0 - - - - - - -
28/06:30pm 14.0 - - - 1012.1 - 0.0 - - - - - - -
28/06:00pm 14.5 - - - 1012.5 - 0.0 - - - - - - -
28/05:30pm 15.3 - - - 1012.5 - 0.0 - - - - - - -
28/05:00pm 15.8 - - - 1012.8 - 0.0 - - - - - - -
28/04:30pm 16.1 - - - 1012.9 - 0.0 - - - - - - -
28/04:00pm 16.3 - - - 1012.4 - 0.0 - - - - - - -
28/03:30pm 16.5 - - - 1012.1 - 0.0 - - - - - - -
28/03:00pm 16.3 - - - 1012.2 F 0.0 Fine Mostly clear 30 - - - -
28/02:30pm 16.5 - - - 1012.6 - 0.0 - - - - - - -
28/02:00pm 16.7 - - - 1012.8 - 0.0 - - - - - - -
28/01:30pm 16.1 - - - 1013.3 - 0.0 - - - - - - -
28/01:00pm 16.3 - - - 1013.8 - 0.0 - - - - - - -
28/12:30pm 16.3 - - - 1014.2 - 0.0 - - - - - - -
28/12:00pm 15.5 - - - 1014.7 F 0.0 Fine Partly cloudy 30 - - - -
28/11:30am 15.4 - - - 1015.3 - 0.0 - - - - - - -
28/11:00am 14.4 - - - 1015.5 - 0.0 - - - - - - -
28/10:30am 13.7 - - - 1016.0 - 0.0 - - - - - - -
28/10:00am 13.1 - - - 1016.0 - 0.0 - - - - - - -
28/09:30am 12.4 - - - 1016.3 - 0.0 - - - - - - -
28/09:00am 11.4 - - - 1016.6 F 0.0 Fine Partly cloudy 30 - - - -
28/08:30am 11.0 - - - 1016.4 - 0.0 - - - - - - -
28/08:00am 10.7 - - - 1016.5 - 0.0 - - - - - - -
28/07:30am 10.3 - - - 1016.5 - 0.0 - - - - - - -
28/07:00am 10.2 - - - 1016.4 - 0.0 - - - - - - -
28/06:30am 10.3 - - - 1016.3 - 0.0 - - - - - - -
28/06:00am 10.2 - - - 1016.5 - 0.0 - - - - - - -
28/05:30am 10.2 - - - 1016.7 - 0.0 - - - - - - -
28/05:00am 10.4 - - - 1016.7 - 0.0 - - - - - - -
28/04:30am 10.2 - - - 1016.7 - 0.0 - - - - - - -
28/04:00am 10.3 - - - 1016.7 - 0.0 - - - - - - -
28/03:30am 10.3 - - - 1017.1 - 0.0 - - - - - - -
28/03:00am 10.6 - - - 1017.7 - 0.0 - - - - - - -
28/02:30am 10.8 - - - 1017.9 - 0.0 - - - - - - -
28/02:00am 10.8 - - - 1018.1 - 0.0 - - - - - - -
28/01:30am 10.8 - - - 1018.3 - 0.0 - - - - - - -
28/01:00am 11.1 - - - 1018.7 - 0.0 - - - - - - -
28/12:30am 11.3 - - - 1019.0 - 0.0 - - - - - - -
28/12:00am 11.5 - - - 1019.2 - 0.0 - - - - - - -
 
Date/Time
EST
Temp

°C
Wind Pressure Rain
since 9am
mm
Weather Cloud Vis
km
Sea
Height
m
Swell
Dir
 
Speed
knots
Gust
knots
hPa Trend Height
m
Period
s
Dir
27/11:30pm 11.5 - - - 1019.5 - 0.0 - - - - - - -
27/11:00pm 11.8 - - - 1019.9 - 0.0 - - - - - - -
27/10:30pm 11.7 - - - 1020.3 - 0.0 - - - - - - -
27/10:00pm 11.9 - - - 1020.6 - 0.0 - - - - - - -
27/09:30pm 12.0 - - - 1020.6 - 0.0 - - - - - - -
27/09:00pm 12.3 - - - 1020.8 - 0.0 - - - - - - -
27/08:30pm 12.6 - - - 1020.8 - 0.0 - - - - - - -
27/08:00pm 13.1 - - - 1020.9 - 0.0 - - - - - - -
27/07:30pm 13.2 - - - 1021.0 - 0.0 - - - - - - -
27/07:00pm 13.3 - - - 1020.6 - 0.0 - - - - - - -
27/06:30pm 13.7 - - - 1020.3 - 0.0 - - - - - - -
27/06:00pm 14.1 - - - 1020.2 - 0.0 - - - - - - -
27/05:30pm 15.0 - - - 1020.2 - 0.0 - - - - - - -
27/05:00pm 15.3 - - - 1020.7 - 0.0 - - - - - - -
27/04:30pm 15.5 - - - 1020.6 - 0.0 - - - - - - -
27/04:00pm 15.7 - - - 1020.8 - 0.0 - - - - - - -
27/03:30pm 15.7 - - - 1020.5 - 0.0 - - - - - - -
27/03:00pm 15.7 - - - 1020.6 - 0.0 - - - - - - -
27/02:30pm 15.9 - - - 1020.4 - 0.0 - - - - - - -
27/02:00pm 15.9 - - - 1020.5 - 0.0 - - - - - - -
27/01:30pm 16.1 - - - 1020.8 - 0.0 - - - - - - -
27/01:00pm 16.8 - - - 1021.5 - 0.0 - - - - - - -
27/12:30pm 15.3 - - - 1022.0 - 0.0 - - - - - - -
27/12:00pm 14.7 - - - 1022.8 - 0.0 - - - - - - -
27/11:30am 14.4 - - - 1023.2 - 0.0 - - - - - - -
27/11:00am 14.4 - - - 1023.9 - 0.0 - - - - - - -
27/10:30am 13.5 - - - 1024.4 - 0.0 - - - - - - -
27/10:00am 12.4 - - - 1024.9 - 0.0 - - - - - - -
27/09:30am 10.9 - - - 1025.0 - 0.0 - - - - - - -
27/09:00am 9.7 - - - 1025.0 - 1.0 - - - - - - -
27/08:30am 8.5 - - - 1024.9 - 1.0 - - - - - - -
27/08:00am 8.1 - - - 1025.0 - 1.0 - - - - - - -
27/07:30am 7.8 - - - 1024.8 - 1.0 - - - - - - -
27/07:00am 7.7 - - - 1024.5 - 1.0 - - - - - - -
27/06:30am 7.3 - - - 1024.5 - 1.0 - - - - - - -
27/06:00am 7.5 - - - 1024.5 - 1.0 - - - - - - -
27/05:30am 7.6 - - - 1024.4 - 1.0 - - - - - - -
27/05:00am 8.0 - - - 1024.5 - 1.0 - - - - - - -
27/04:30am 8.3 - - - 1024.6 - 1.0 - - - - - - -
27/04:00am 8.2 - - - 1024.8 - 1.0 - - - - - - -
27/03:30am 8.9 - - - 1024.9 - 1.0 - - - - - - -
27/03:00am 9.1 - - - 1025.2 - 1.0 - - - - - - -
27/02:30am 9.8 - - - 1025.1 - 1.0 - - - - - - -
27/02:00am 10.3 - - - 1025.1 - 1.0 - - - - - - -
27/01:30am 11.2 - - - 1025.2 - 1.0 - - - - - - -
27/01:00am 11.7 - - - 1025.1 - 1.0 - - - - - - -
27/12:30am 12.0 - - - 1025.4 - 1.0 - - - - - - -
27/12:00am 11.9 - - - 1025.6 - 1.0 - - - - - - -
 
Date/Time
EST
Temp

°C
Wind Pressure Rain
since 9am
mm
Weather Cloud Vis
km
Sea
Height
m
Swell
Dir
 
Speed
knots
Gust
knots
hPa Trend Height
m
Period
s
Dir
26/11:30pm 12.5 - - - 1025.6 - 1.0 - - - - - - -
26/11:00pm 12.5 - - - 1025.6 - 1.0 - - - - - - -
26/10:30pm 12.5 - - - 1025.7 - 1.0 - - - - - - -
26/10:00pm 12.6 - - - 1025.6 - 1.0 - - - - - - -
26/09:30pm 12.7 - - - 1025.5 - 1.0 - - - - - - -
26/09:00pm 12.7 - - - 1025.5 - 1.0 - - - - - - -
26/08:30pm 12.8 - - - 1025.2 - 1.0 - - - - - - -
26/08:00pm 13.0 - - - 1024.9 - 1.0 - - - - - - -
26/07:30pm 13.0 - - - 1024.8 - 1.0 - - - - - - -
26/07:00pm 13.1 - - - 1024.5 - 1.0 - - - - - - -
26/06:30pm 13.0 - - - 1024.3 - 1.0 - - - - - - -
26/06:00pm 13.0 - - - 1024.2 - 1.0 - - - - - - -
26/05:30pm 12.9 - - - 1023.9 - 1.0 - - - - - - -
26/05:00pm 12.7 - - - 1023.8 - 1.0 - - - - - - -
26/04:30pm 12.9 - - - 1023.6 - 0.8 - - - - - - -
26/04:00pm 14.4 - - - 1023.1 - 0.4 - - - - - - -
26/03:30pm 14.9 - - - 1022.8 - 0.4 - - - - - - -
26/03:00pm 14.5 - - - 1022.7 - 0.4 - - - - - - -
26/02:30pm 14.3 - - - 1022.4 - 0.2 - - - - - - -
26/02:00pm 14.1 - - - 1022.4 - 0.2 - - - - - - -
26/01:30pm 14.4 - - - 1022.3 - 0.0 - - - - - - -
26/01:00pm 14.6 - - - 1022.4 - 0.0 - - - - - - -
26/12:30pm 14.3 - - - 1022.7 - 0.0 - - - - - - -
26/12:00pm 14.3 - - - 1023.1 - 0.0 - - - - - - -
26/11:30am 14.5 - - - 1023.2 - 0.0 - - - - - - -
26/11:00am 14.4 - - - 1023.4 - 0.0 - - - - - - -
26/10:30am 14.3 - - - 1023.5 - 0.0 - - - - - - -
26/10:00am 13.3 - - - 1023.5 - 0.0 - - - - - - -
26/09:30am 13.2 - - - 1023.3 - 0.0 - - - - - - -
26/09:00am 12.9 - - - 1023.1 - 0.2 - - - - - - -
26/08:30am 12.6 - - - 1022.6 - 0.2 - - - - - - -
26/08:00am 12.5 - - - 1022.4 - 0.2 - - - - - - -
26/07:30am 12.4 - - - 1022.1 - 0.2 - - - - - - -
26/07:00am 12.3 - - - 1021.8 - 0.2 - - - - - - -
26/06:30am 12.5 - - - 1021.4 - 0.0 - - - - - - -
26/06:00am 12.4 - - - 1021.2 - 0.0 - - - - - - -
26/05:30am 12.3 - - - 1020.8 - 0.0 - - - - - - -
26/05:00am 12.4 - - - 1020.6 - 0.0 - - - - - - -
26/04:30am 12.4 - - - 1020.3 - 0.0 - - - - - - -
26/04:00am 12.5 - - - 1020.3 - 0.0 - - - - - - -
26/03:30am 12.5 - - - 1020.1 - 0.0 - - - - - - -
26/03:00am 12.9 - - - 1020.1 - 0.0 - - - - - - -

Other Formats:

Comma delimited format used in spreadsheet applications
http://www.bom.gov.au/fwo/IDV60701/IDV60701.94868.axf

JavaScript Object Notation format (JSON) in row-major order
http://www.bom.gov.au/fwo/IDV60701/IDV60701.94868.json